User: anonymous   Login
Location: Catstown
(52.4386°N, 7.2633°W)
Time: 11:57:35
(UTC+00:00)
Language:

Cosmos 1743 - Orbit

View from above orbital plane
View from above orbital plane
View from above satellite
View from above satellite

Ground track
Ground track

The orbit data is extracted from the following two-line orbital elements,

1 16719U 86034A   21163.04253308  .00000268  00000-0  12242-4 0  9994
2 16719  82.5518   4.8113 0010252 278.9931 235.6874 15.16061750916194
Epoch (UTC): 12 June 2021 01:01:14
Eccentricity: 0.0010252
inclination: 82.5518°
perigee height: 510 km
apogee height: 525 km
right ascension of ascending node: 4.8113°
argument of perigee: 278.9931°
revolutions per day: 15.16061750
mean anomaly at epoch: 235.6874°
orbit number at epoch: 91619

The dashed part of the orbit path shows where the satellite is in the earth's shadow,  

DLR